Find TUBSAT-1

NORAD ID: 21577 Int'l Des: 1991-050 Owner: TUB Country: D operational
LEOCIRCULARRETROGRADESSO

Live Position

Loading 3D Globe...

About TUBSAT-1

Description loading...

Upcoming Passes

Passes for default location (London). Set your location on the main map for personalized predictions.

Altitude History

Loading altitude history...

Two-Line Element Set

1 21577U 91050D 26105.75975428 .00000062 00000-0 33106-4 0 9993
2 21577 98.3861 176.7671 0007424 88.8780 271.3259 14.40530367824398
Epoch: Apr 15, 2026 • Age: 11 hours

Current Status

Altitude 758.8 km
Velocity 7.48 km/s
Sub-Earth Point 5.63°N, 78.05°E
Launch Date Jul 17, 1991
Age 34.7 years
Type other

Technical Details

Classification Payload
Mass 35.00 kg
Dry Mass 35.00 kg
Total Mass 35.00 kg
Length 0.50 m
Diameter 0.40 m
Span 1.00 m
Shape Box + Ant
Manufacturer TUB
Bus Type Tubsat
Phase Status In Orbit
Owner/State TUB/D

Most Searched